Location: *
(43.6428°N, 11.5461°E)
Time: 21:10:05
(UTC+00:00)

Cosmos 2084 Rocket - Pass Details

Date: 21 October 2019
Orbit: 572 x 609 km, 62.8° (Epoch: 14 November)

Event Time Altitude Azimuth Distance (km) Brightness Sun altitude
Rises 18:29:10 0° 319° (NW) 2,869 7.7 -23.8°
Reaches altitude 10° 18:31:28 10° 317° (NW) 1,957 6.8 -24.2°
Maximum altitude 18:35:51 63° 236° (WSW) 670 3.8 -25.0°
Enters shadow 18:36:06 62° 216° (SW) 678 3.7 -25.0°
